This demonstration page uses our WeatherBlox Daily Observations layout. Learn more.

Left ArrowRight Arrow

34.02893, -84.19858

Hourly Observations for March 11, 2022

Temp ( °F °C ) Dew Point ( °F °C ) Humidity (%) Winds ( mph kmh ) Pressure ( in mb ) Visibility ( mi km ) Precip ( " mm )
12:30 am 00:30 Cloudy with Mist and Fog 47 8.3 45 7.2 93 93 VRB 5 7 30.11 1020 6 10 0.00 0.00
12:53 am 00:53 Cloudy with Mist and Fog 47 8.3 45 7.2 93 93 VRB 6 9 30.09 1019 6 10 0.00 0.00
1:53 am 01:53 Cloudy with Mist and Fog 47 8.3 45 7.2 93 93 E 6 9 30.08 1019 4 6 0.00 0.00
2:53 am 02:53 Cloudy with Mist and Fog 47 8.3 45 7.2 93 93 E 5 7 30.06 1018 5 8 0.00 0.00
3:25 am 03:25 Cloudy with Mist and Fog 47 8.3 45 7.2 93 93 VRB 5 7 30.07 1018 3 4 0.00 0.00
3:53 am 03:53 Cloudy with Mist and Fog 47 8.3 46 7.8 97 97 Calm 30.05 1018 3 4 0.00 0.00
4:02 am 04:02 Cloudy with Mist and Fog 47 8.3 45 7.2 93 93 VRB 3 6 30.07 1018 3 5 0.00 0.00
4:36 am 04:36 Cloudy with Mist and Fog 47 8.3 45 7.2 93 93 E 7 11 30.06 1018 5 8 0.00 0.00
4:53 am 04:53 Cloudy with Mist and Fog 47 8.3 45 7.2 93 93 VRB 5 7 30.04 1017 5 8 0.00 0.00
5:53 am 05:53 Cloudy 47 8.3 45 7.2 93 93 VRB 3 6 30.05 1018 8 13 0.00 0.00
6:53 am 06:53 Cloudy 47 8.3 45 7.2 93 93 Calm 30.07 1018 10 16 0.00 0.00
7:53 am 07:53 Cloudy 47 8.3 45 7.2 93 93 VRB 6 9 30.07 1018 8 13 0.00 0.00
8:53 am 08:53 Cloudy 48 8.9 46 7.8 93 93 VRB 3 6 30.08 1019 7 11 0.00 0.00
9:53 am 09:53 Cloudy 49 9.4 46 7.8 90 90 VRB 6 9 30.06 1018 7 11 0.00 0.00
10:53 am 10:53 Cloudy 51 10.6 47 8.3 86 86 ENE 3 6 30.06 1018 7 11 0.00 0.00
11:53 am 11:53 Cloudy 52 11.1 48 8.9 86 86 VRB 5 7 30.06 1018 8 13 0.00 0.00
12:41 pm 12:41 Cloudy 53 11.7 48 8.9 83 83 VRB 3 6 30.02 1017 9 14 0.00 0.00
12:53 pm 12:53 Cloudy 54 12.2 49 9.4 83 83 E 5 7 30.02 1017 10 16 0.00 0.00
1:53 pm 13:53 Cloudy 57 13.9 50 10 78 78 NE 3 6 29.95 1014 10 16 0.00 0.00
2:53 pm 14:53 Cloudy 58 14.4 51 10.6 78 78 ESE 5 7 29.92 1013 10 16 0.00 0.00
3:03 pm 15:03 Cloudy 58 14.4 51 10.6 78 78 ESE 5 7 29.89 1012 10 16 0.00 0.00
3:53 pm 15:53 Cloudy 59 15 51 10.6 75 75 VRB 5 7 29.88 1012 10 16 0.00 0.00
4:26 pm 16:26 Cloudy 58 14.4 52 11.1 81 81 E 6 9 29.87 1012 10 16 0.00 0.00
4:53 pm 16:53 Cloudy 57 13.9 52 11.1 83 83 SE 6 9 29.87 1012 10 16 0.00 0.00
5:53 pm 17:53 Cloudy 57 13.9 52 11.1 83 83 S 3 6 29.86 1011 9 14 0.00 0.00
6:53 pm 18:53 Cloudy 56 13.3 52 11.1 87 87 S 3 6 29.85 1011 9 14 0.00 0.00
7:50 pm 19:50 Cloudy 55 13 52 11 88 88 SE 5 7 29.83 1010 9 14 0.00 0.00
7:53 pm 19:53 Cloudy 55 12.8 52 11.1 90 90 SE 5 7 29.83 1010 9 14 0.00 0.00
8:53 pm 20:53 Cloudy with Mist and Fog 54 12.2 53 11.7 97 97 SE 3 6 29.81 1010 4 6 0.00 0.00
9:16 pm 21:16 Cloudy with Mist and Fog 54 12.2 53 11.7 97 97 VRB 3 6 29.79 1009 3 4 0.00 0.00
9:23 pm 21:23 Cloudy with Mist and Fog 54 12.2 53 11.7 97 97 SE 3 6 29.79 1009 3 5 0.00 0.00
9:53 pm 21:53 Cloudy with Mist and Fog 53 11.7 53 11.7 100 100 ESE 3 6 29.77 1008 4 6 0.00 0.00
10:34 pm 22:34 Cloudy with Mist and Fog 53 11.7 53 11.7 100 100 VRB 5 7 29.75 1008 2 3 0.00 0.00
10:42 pm 22:42 Cloudy with Mist and Fog 53 11.7 52 11.1 96 96 ESE 3 6 29.74 1007 2 3 0.00 0.00
10:53 pm 22:53 Cloudy with Mist and Fog 53 11.7 53 11.7 100 100 E 3 6 29.73 1007 2 3 0.00 0.00
11:00 pm 23:00 Cloudy with Mist and Fog 53 11.7 52 11.1 96 96 ESE 3 6 29.72 1007 2 3 0.00 0.00
11:32 pm 23:32 Cloudy with Nearby Thunderstorms 52 11.1 52 11.1 100 100 ESE 6 9 29.71 1006 3 4 0.09 2.29
11:38 pm 23:38 Cloudy with Nearby Thunderstorms 52 11.1 52 11.1 100 100 VRB 6 9 29.70 1006 2 3 0.14 3.56
11:41 pm 23:41 Cloudy with Rain 52 11.1 52 11.1 100 100 Calm 29.70 1006 2 3 0.15 3.81
11:51 pm 23:51 Cloudy with Rain 52 11 52 11 100 100 VRB 5 7 29.69 1005 4 6 0.17 4.32
11:53 pm 23:53 Cloudy with Rain 52 11.1 52 11.1 100 100 SE 6 9 29.67 1005 4 6 0.17 4.32

Powered by AerisWeather